www.pogodaiklimat.ru

Погода и климат >> Архив погоды >> Венгрия >> Kecskemet


ПОГОДА в Kecskemet

  • Прогноз погоды в Kecskemet
  • Монитор погоды в Kecskemet
  • Климат города

АРХИВ ПОГОДЫ в Kecskemet

Время (UTC), дата Ветер
(напр.,м/с)
 
Видим.   Явления Облачность Т
(С)
Тd
(С)
f
(%)
Тe
(С)
Тes
(С)
Комфортность P
(гПа)
Po
(гПа)
Тmin
(С)
Tmax
(С)
R
(мм)
R24
(мм)
S
(см)
22 8.12 З 3 10 км ясно +3.4 +0.3 80 -0 -0 1013.5 999.4
23 8.12 ЮЗ 3 20 км 4/3 1500 м
[Sc Ci sp]
+2.5 +0.2 85 -2 -2 1013.4 999.2
00 9.12 ЮЗ 3 20 км 4/4 1500 м
[Sc]
+2.7 +0.8 87 -1 -1 1012.9 998.7
01 9.12 ЮЗ 4 20 км 8/8 1500 м
[Sc]
+3.4 +1.8 89 -1 -1 1012.2 998.1
02 9.12 ЮЗ 5 15 км 10/6 1500 м
[Sc Ac As]
+3.5 +2.0 90 -2 -2 1011.5 997.4
03 9.12 ЮЗ 3 15 км 8/5 2000 м
[Sc Ac As]
+3.2 +1.9 91 -1 -1 1010.9 996.8
04 9.12 Ю 2 20 км 5/3 2000 м
[Sc Ac As]
+2.5 +1.0 90 -1 -1 1010.1 996.0
05 9.12 Ю 3 20 км 3/1 2000 м
[Sc Ac lent]
+1.7 +0.2 90 -3 -3 1009.5 995.3
06 9.12 Ю 3 20 км 1/0
[Ac lent]
+0.8 -0.2 93 -4 -4 1009.3 995.1 +0.5 0
07 9.12 Ю 5 20 км 3/3 2000 м
[Sc Ac lent]
+1.7 +0.4 91 -4 -4 1008.0 993.9
08 9.12 Ю 4 н/о н/о +2.6 +0.8 88 -2 -2 1007.5 993.2
09 9.12 Ю 5 20 км осадки на расстоянии 9/0
[Ac As Ci sp]
+5.6 +0.8 71 +1 +2 1006.6 992.7
10 9.12 Ю 4 20 км осадки на расстоянии 9/0
[Ac As Cs]
+6.9 +1.8 70 +4 +4 1006.1 992.2
11 9.12 Ю 4 30 км осадки на расстоянии 8/0
[Ac As Ci sp]
+6.6 +0.7 66 +3 +4 1006.1 992.2
12 9.12 ЮЗ 4 30 км осадки на расстоянии 9/3 1500 м
[Sc Ac As]
+6.8 +0.9 66 +3 +4 1005.6 991.7
13 9.12 ЮЗ 4 20 км в посл. час дождь 9/6 1500 м
[Sc Ac As]
+6.4 +2.5 76 +3 +3 1004.8 990.9
14 9.12 Ю 4 20 км 9/4 1440 м
[Sc Ac As Cs]
+6.9 +2.0 71 +4 +4 1004.2 990.4
15 9.12 ЮЗ 1 20 км 8/5 1500 м
[Sc Ac As Cs]
+6.4 +1.9 73 +6 +6 1005.0 991.1
16 9.12 ЮЗ 2 20 км 8/3 2000 м
[Sc Ac As Cs]
+5.0 +1.7 79 +2 +2 1004.9 991.0
17 9.12 ЮЗ 2 15 км 10/4 1500 м
[Sc Ac As Cs]
+5.2 +1.5 77 +3 +3 1004.6 990.7
18 9.12 ЮЗ 2 10 км {дождь} 5/0
[Ac As Ci sp]
+3.3 +1.2 86 0 0 1005.1 991.1 +7.5 0.1 0
19 9.12 ЮЗ 3 10 км 3/0
[Ci sp]
+3.6 +0.6 81 -0 -0 1005.2 991.2
20 9.12 ЮЗ 2 10 км 1/0
[Ci sp]
+3.5 +0.9 83 +1 +1 1005.7 991.7
21 9.12 ЮЗ 2 8000 м 4/3 1500 м
[Sc Ci sp]
+3.3 +0.9 84 0 0 1006.2 992.2
22 9.12 ЮЗ 3 8000 м 4/4 2000 м
[Sc]
+3.9 +1.1 82 0 0 1006.4 992.4
23 9.12 ЮЗ 3 10 км 6/4 2000 м
[Sc Ac As]
+4.2 +1.4 82 +1 +1 1006.4 992.4
00 10.12 З 4 н/о н/о +4.5 +1.4 80 0 0 1006.8 992.6
01 10.12 З 4 10 км в посл. час дождь 9/6 1230 м
[Sc Ac As]
+5.2 +2.0 80 +1 +1 1007.1 993.1
02 10.12 З 5 10 км слабый дождь 9/6 1300 м
[Sc Ac As]
+6.8 +2.5 74 +3 +3 1007.0 993.1
03 10.12 З 4 10 км в посл. час дождь 9/9 1300 м
[Sc]
+6.1 +2.9 80 +2 +2 1007.0 993.1
04 10.12 З 4 10 км 5/3 2000 м
[Sc Ac As]
+5.9 +2.9 81 +2 +2 1007.0 993.1
05 10.12 З 5 10 км 4/0
[Ac As Ci sp]
+5.4 +2.4 81 +1 +1 1007.7 993.7
06 10.12 З 5 10 км {дождь} 8/0
[Ac lent Cs]
+4.9 +2.3 83 0 0 1008.0 994.0 +3.0 0.0 0
07 10.12 СЗ 8 20 км 8/0
[Ac As Cs]
+5.7 +2.0 77 0 0 1008.4 994.5
08 10.12 СЗ 8 30 км 8/0
[Ac As Cs]
+6.2 +1.7 73 +1 +1 1009.2 995.3
09 10.12 З 9 40 км 8/1 630 м
[Cu hum Ac lent Cs]
+5.9 +0.9 70 0 0 1009.8 995.8
10 10.12 СЗ 11 40 км 6/1 800 м
[Cu hum Ci sp]
+7.5 +0.5 61 +2 +2 1009.8 995.9
11 10.12 СЗ 13 40 км 4/3 1020 м
[Cu hum Ci sp]
+8.0 -1.0 53 +3 +3 1010.1 996.2
12 10.12 СЗ 13 40 км 6/4 1200 м
[Cu hum Ci sp]
+8.1 -0.9 53 +3 +3 1010.8 996.9
13 10.12 СЗ 10 40 км 8/5 1200 м
[Cu hum Ci sp]
+7.7 -0.5 56 +3 +3 1011.3 997.4
14 10.12 СЗ 10 40 км 8/3 1200 м
[Cu hum Ac trans Ci sp]
+6.9 -0.6 59 +2 +2 1011.9 998.0
15 10.12 СЗ 7 40 км 6/1 1300 м
[Sc diur, vesp Ac trans Ci sp]
+5.1 -0.7 66 0 0 1012.7 998.7
16 10.12 СЗ 6 40 км 6/0
[Ac As Ci sp]
+3.9 +0.1 76 -1 -1 1013.0 998.9
17 10.12 СЗ 7 40 км 5/0
[Ac lent Ci sp]
+3.5 -0.1 77 -2 -2 1013.2 999.1
18 10.12 СЗ 4 40 км 3/0
[Ci sp]
+1.8 -0.6 84 -3 -3 1013.6 999.4 +8.6 0
19 10.12 СЗ 5 40 км ясно +1.9 -1.2 80 -4 -4 1013.9 999.7
20 10.12 СЗ 5 40 км ясно +2.1 -1.2 79 -3 -3 1013.9 999.7
21 10.12 З 5 40 км ясно +1.7 -1.4 80 -4 -4 1014.1 999.9
22 10.12 З 5 40 км ясно +1.5 -1.4 81 -4 -4 1014.0 999.8
23 10.12 З 6 40 км ясно +1.3 -1.6 81 -5 -5 1013.7 999.5
00 11.12 З 6
{8}
н/о н/о +1.1 -1.6 82 -5 -5 1013.8 999.3
01 11.12 З 6 40 км ясно +0.6 -2.1 82 -6 -6 1014.1 999.8
02 11.12 СЗ 5 40 км ясно -0.6 -2.3 88 -7 -7 1014.4 1000.0
03 11.12 СЗ 4 30 км ясно -1.2 -2.5 91 -7 -7 1014.7 1000.3
04 11.12 СЗ 3 25 км ясно -2.7 -3.5 94 -8 -8 1015.0 1000.5
05 11.12 СЗ 2 20 км ясно -2.6 -3.7 92 -7 -7 1015.3 1000.8
06 11.12 СЗ 1 20 км ясно -1.8 -2.9 92 -4 -4 1015.3 1000.9 -3.1 0
07 11.12 З 2 20 км 1/0
[Ac lent]
-2.1 -3.4 91 -6 -6 1015.6 1001.2
08 11.12 СЗ 3 30 км 1/0
[Ac lent Ci sp]
+0.9 -1.8 82 -4 -3 1015.5 1001.2
09 11.12 З 5 30 км 1/0
[Ac lent Ci sp]
+2.6 -1.4 75 -3 -2 1015.7 1001.5
10 11.12 З 5 20 км 4/4 1440 м
[Sc]
+3.7 -1.7 68 -1 -0 1015.5 1001.4
11 11.12 З 5 30 км 9/9 600 м
[Cu Sc]
+4.1 -1.3 68 -1 -0 1015.1 1001.0
12 11.12 З 6
{10}
н/о н/о +3.4 -0.2 77 -2 -2 1015.3 1000.9
13 11.12 З 6 15 км в посл. час дождь 9/9 400 м
[Frnb]
+3.3 +0.2 80 -2 -2 1015.5 1001.3
14 11.12 З 5 8000 м слабый дождь 9/9 360 м
[Frnb]
+2.9 +0.6 85 -2 -2 1016.0 1001.8
15 11.12 З 3
{8}
н/о н/о +2.8 +1.2 89 -1 -1 1016.0 1001.6
16 11.12 ЮЗ 2 8000 м слабый дождь 10/10 300 м
[Frnb]
+2.6 +1.6 93 -1 -1 1016.1 1001.9
17 11.12 З 3 10 км в посл. час дождь 10/10 900 м
[Sc]
+2.7 +1.5 92 -2 -2 1016.2 1002.0
18 11.12 З 4 7000 м слабый дождь 10/10 360 м
[Frnb]
+2.4 +1.2 92 -3 -3 1016.2 1002.0 +4.7 0.8 0
19 11.12 З 5 10 км в посл. час дождь 10/10 330 м
[Frnb]
+2.5 +1.3 92 -3 -3 1016.2 1002.0
20 11.12 З 6 10 км 10/10 330 м
[Frnb]
+2.3 +1.3 93 -4 -4 1016.0 1001.8
21 11.12 З 5 10 км в посл. час дождь 10/10 330 м
[Frnb]
+2.3 +1.4 94 -3 -3 1016.0 1001.8
22 11.12 З 5 10 км 10/10 300 м
[Frnb]
+2.3 +1.4 94 -3 -3 1015.9 1001.7
23 11.12 З 5
{8}
н/о н/о +2.3 +1.1 92 -3 -3 1015.7 1001.3
00 12.12 З 4 10 км {дождь} 10/10 300 м
[Frnb]
+2.3 +1.3 93 -3 -3 1015.6 1001.4 0.2
01 12.12 З 5 10 км 10/10 270 м
[Frnb]
+2.2 +1.3 94 -3 -3 1015.8 1001.6
02 12.12 З 4 20 км 10/10 270 м
[Frnb]
+2.1 +1.1 93 -3 -3 1015.9 1001.7
03 12.12 З 4 20 км 8/8 540 м
[Sc]
+1.4 +0.2 92 -4 -4 1016.1 1001.8
04 12.12 З 4 20 км 9/9 420 м
[Sc]
+1.4 +0.1 91 -4 -4 1016.1 1001.8
05 12.12 З 4 20 км 1/0
[Ac lent]
+0.8 -0.3 92 -5 -5 1016.5 1002.2
06 12.12 З 3 15 км 3/0
[Ac lent]
+0.1 -0.7 94 -5 -5 1017.0 1002.6 +0.1 0.2 0
07 12.12 З 3 10 км 1/1 150 м
[Frnb Ac lent]
-0.2 -0.9 95 -5 -5 1017.6 1003.2
08 12.12 З 4 10 км 5/5 300 м
[Frnb]
+0.6 -0.4 93 -5 -5 1018.0 1003.7
09 12.12 З 5 10 км 10/10 360 м
[Frnb]
+1.2 +0.2 93 -5 -5 1018.5 1004.2
10 12.12 СЗ 4 10 км 9/9 240 м
[Frnb]
+1.8 +0.6 92 -3 -3 1018.8 1004.5
11 12.12 С 3 10 км 10/10 270 м
[Frnb]
+1.7 +0.2 90 -3 -3 1018.8 1004.5
12 12.12 С 1 10 км 9/9 300 м
[Frnb]
+1.6 -0.5 86 -0 0 1019.0 1004.7
13 12.12 С 2 10 км 8/8 300 м
[Frnb]
+1.9 -0.7 83 -1 -1 1019.4 1005.1
14 12.12 С 2 20 км 8/8 300 м
[Frnb]
+2.1 -0.6 82 -1 -1 1019.7 1005.4
15 12.12 штиль 0 10 км 8/8 900 м
[Sc]
+1.5 -0.4 87 0 0 1020.0 1005.7
16 12.12 ЮЗ 1 10 км 9/9 1000 м
[Sc]
+1.7 -0.1 88 -0 -0 1020.3 1006.0
17 12.12 штиль 0 10 км 9/9 1000 м
[Sc]
+0.8 -0.1 94 -1 -1 1020.6 1006.2
18 12.12 штиль 0 8000 м 9/9 1000 м
[Sc]
+0.5 -0.4 94 -1 -1 1020.8 1006.4 +2.5 0
19 12.12 штиль 0 8000 м 10/10 1000 м
[Sc]
-1.0 -1.4 97 -2 -2 1021.3 1006.8
20 12.12 СВ 2 5000 м дымка 3/0
[Ci sp]
-2.5 -2.9 97 -7 -7 1021.8 1007.2
21 12.12 штиль 0 2000 м местами туман поземный 3/0
[Ci sp]
-2.5 -2.6 99 -4 -4 1022.1 1007.5
22 12.12 штиль 0 5000 м дымка 6/6 1200 м
[Sc]
-2.0 -2.3 98 -3 -3 1022.2 1007.7
23 12.12 штиль 0 5000 м дымка 8/8 1200 м
[Sc]
-1.1 -1.2 99 -3 -3 1022.2 1007.7
00 13.12 З 2 н/о н/о -1.8 -2.2 97 -6 -6 1022.3 1007.6
01 13.12 СЗ 1 3000 м дымка 3/3 2000 м
[Sc]
-2.8 -2.9 99 -5 -5 1022.5 1007.9
02 13.12 штиль 0 3000 м местами туман поземный 6/6 2000 м
[Sc]
-3.6 -3.7 99 -5 -5 1022.6 1008.0
03 13.12 штиль 0 3000 м дымка 10/10 1200 м
[Sc]
-3.4 -3.5 99 -5 -5 1022.5 1007.9
04 13.12 штиль 0 3000 м дымка 9/9 1200 м
[Sc]
-3.0 -3.3 98 -4 -4 1022.3 1007.7
05 13.12 СВ 2 3000 м дымка 9/9 1000 м
[Sc]
-2.3 -2.4 99 -7 -7 1022.3 1007.7
06 13.12 штиль 0 2000 м местами туман поземный 5/5 1000 м
[Sc]
-2.6 -2.9 98 -4 -4 1022.2 1007.6 -3.9 0
07 13.12 штиль 0 1500 м дымка 4/4 1000 м
[Sc]
-3.6 -3.7 99 -5 -5 1022.5 1007.9
08 13.12 СЗ 1 1800 м в посл. час туман 1/0
[Ci sp]
-2.8 -2.8 100 -5 -4 1022.8 1008.2
09 13.12 штиль 0 4000 м дымка {туман} 1/1 150 м
[Cu hum Ci sp]
+0.2 -0.2 97 -1 +1 1022.7 1008.3
10 13.12 Ю 1 6000 м 1/0
[Ci sp]
+2.3 -0.5 82 +1 +3 1022.3 1008.0
11 13.12 ЮВ 1 8000 м 1/1 500 м
[Cu hum Ci sp]
+3.0 -1.4 73 +2 +4 1021.9 1007.6
12 13.12 Ю 2 8000 м {туман} 4/4 800 м
[Cu hum]
+4.1 -2.7 61 +2 +3 1021.6 1007.4
13 13.12 СВ 1 10 км 5/5 800 м
[Cu hum]
+3.1 -2.8 65 +2 +3 1021.4 1007.1
14 13.12 штиль 0 10 км 4/4 900 м
[Cu hum]
+2.6 -3.3 65 +2 +2 1021.3 1007.0
15 13.12 штиль 0 8000 м 3/3 900 м
[Sc diur, vesp]
+1.4 -3.3 71 +1 +1 1021.4 1007.1
16 13.12 штиль 0 8000 м 3/3 840 м
[Sc diur, vesp]
-0.4 -2.8 84 -2 -2 1021.5 1007.1
17 13.12 СЗ 1 5000 м дымка 6/6 840 м
[Sc]
-2.1 -3.1 93 -4 -4 1021.7 1007.2
18 13.12 С 2 3000 м дымка 5/5 900 м
[Sc]
-2.6 -3.1 96 -7 -7 1021.8 1007.2 +4.5 0
19 13.12 З 2 2000 м дымка ясно -3.6 -3.9 98 -8 -8 1022.1 1007.5
20 13.12 СЗ 1 1500 м местами туман поземный ясно -4.7 -5.0 98 -7 -7 1022.5 1007.8
21 13.12 СЗ 2 1300 м местами туман поземный ясно -4.9 -5.0 99 -9 -9 1022.6 1007.9
22 13.12 С 2 2000 м дымка ясно -6.3 -6.8 96 -11 -11 1022.7 1007.9
23 13.12 СЗ 1 1800 м дымка ясно -4.7 -5.1 97 -7 -7 1022.5 1007.8
00 14.12 С 1 н/о н/о -4.0 -4.3 98 -7 -7 1022.4 1007.5
01 14.12 СВ 2 2000 м дымка ясно -4.1 -4.5 97 -8 -8 1022.5 1007.8
02 14.12 С 1 2000 м дымка ясно -4.9 -5.3 97 -7 -7 1022.4 1007.7
03 14.12 СВ 2 2000 м дымка ясно -4.4 -4.8 97 -9 -9 1022.0 1007.3
04 14.12 С 1 2000 м дымка ясно -4.9 -5.4 96 -7 -7 1021.9 1007.2
05 14.12 СВ 2 2000 м дымка 1/0
[Ci sp]
-4.7 -5.2 96 -9 -9 1022.0 1007.3
06 14.12 СВ 3 3000 м дымка 3/0
[Ci sp]
-4.8 -5.3 96 -10 -10 1022.1 1007.4 -6.5 0
07 14.12 СВ 2 3000 м дымка 5/1 900 м
[Sc Ac As]
-4.3 -5.0 95 -9 -9 1022.4 1007.7
08 14.12 СВ 2 4000 м дымка 9/0
[Ac trans]
-3.3 -4.1 94 -8 -7 1022.7 1008.1
09 14.12 СВ 4 6000 м 8/0
[Ac trans]
-2.0 -3.3 91 -8 -7 1022.6 1008.1
10 14.12 СВ 5 8000 м 6/0
[Ac trans]
-0.4 -2.8 84 -7 -6 1022.7 1008.2
11 14.12 СВ 6 10 км 8/0
[Ac trans Ci sp]
+0.2 -2.5 82 -6 -6 1022.3 1007.9
12 14.12 СВ 5 10 км 9/0
[Ac As]
+1.2 -2.0 79 -4 -4 1021.6 1007.2
13 14.12 СВ 5 15 км 9/0
[Ac As]
+1.3 -2.1 78 -4 -4 1021.2 1006.9
14 14.12 СВ 5 20 км 9/0
[Ac As]
+1.2 -2.4 77 -4 -4 1021.6 1007.2
15 14.12 СВ 6 20 км 10/6 2000 м
[Sc Ac As]
+0.9 -2.7 77 -5 -5 1021.5 1007.1
16 14.12 СВ 5 20 км 10/6 2000 м
[Sc Ac As]
+0.6 -3.0 77 -5 -5 1021.8 1007.4
17 14.12 СВ 4 20 км 10/6 2000 м
[Sc Ac As]
+0.2 -2.7 81 -5 -5 1021.7 1007.3
18 14.12 СВ 5 20 км 10/10 1000 м
[Sc]
+0.1 -2.9 80 -6 -6 1021.7 1007.3 +1.4 0
19 14.12 СВ 5 8000 м 10/10 1000 м
[Sc]
-0.2 -3.1 81 -6 -6 1021.6 1007.2
20 14.12 СВ 4 6000 м снег 10/10 600 м
[Sc]
-0.4 -2.9 83 -6 -6 1021.5 1007.1
21 14.12 СВ 4 8000 м слабый снег 10/10 750 м
[Sc]
-0.3 -3.3 80 -6 -6 1021.4 1007.0
22 14.12 СВ 4 8000 м слабый снег 10/10 600 м
[Sc]
-0.5 -3.4 81 -6 -6 1021.1 1006.7
23 14.12 СВ 5 1500 м снег 10/10 270 м
[St]
-1.2 -2.2 93 -8 -8 1020.7 1006.2
00 15.12 СВ 5 3500 м снег 10/10 750 м
[Sc]
-1.1 -2.2 92 -8 -8 1020.4 1005.9 0.3
01 15.12 СВ 5 4000 м снег 10/10 450 м
[Sc]
-1.0 -2.3 91 -7 -7 1020.1 1005.6
02 15.12 СВ 5 5000 м слабый снег 10/10 900 м
[Sc]
-0.5 -3.0 83 -7 -7 1019.9 1005.5
03 15.12 СВ 5 5000 м слабый снег 10/10 600 м
[Sc]
-0.7 -3.1 84 -7 -7 1019.6 1005.2
04 15.12 СВ 5 5000 м слабый снег 10/10 660 м
[Sc]
-1.0 -2.4 90 -7 -7 1019.4 1005.0
05 15.12 СВ 5 4000 м слабый снег 10/10 210 м
[Frnb]
-1.3 -2.0 95 -8 -8 1019.7 1005.2
06 15.12 СВ 4 4000 м слабый снег 10/5 180 м
[Frnb As op]
-1.4 -2.1 95 -7 -7 1019.9 1005.4 -1.4 0.4 1
07 15.12 СВ 4 4000 м слабый снег 10/6 180 м
[Frnb As op]
-1.3 -2.1 94 -7 -7 1020.1 1005.6
08 15.12 СВ 4 7000 м слабый снег 10/6 210 м
[Frnb As op]
-1.1 -2.1 93 -7 -7 1020.1 1005.6
09 15.12 СВ 4 5000 м слабый снег 10/8 210 м
[Frnb As op]
-1.0 -2.0 93 -7 -7 1020.3 1005.8
10 15.12 СВ 4 6000 м слабый снег 10/8 210 м
[Frnb As op]
-0.8 -1.8 93 -7 -6 1019.9 1005.5
11 15.12 СВ 3 2500 м снег 10/8 210 м
[Frnb As op]
-0.7 -1.7 93 -6 -6 1019.6 1005.2
12 15.12 СВ 3 4000 м слабый снег 10/8 210 м
[Frnb As op]
-0.7 -1.7 93 -6 -6 1019.0 1004.6 0.1
13 15.12 СВ 2 1800 м снег 10/9 210 м
[Frnb As op]
-0.6 -1.3 95 -5 -5 1019.0 1004.6
14 15.12 СВ 2 1200 м снег 10/9 210 м
[Frnb As op]
-0.8 -1.2 97 -5 -5 1019.3 1004.9
15 15.12 С 2 2000 м слабый снег 10/8 210 м
[Frnb As op]
-0.9 -1.3 97 -5 -5 1019.3 1004.9
16 15.12 С 2 1800 м снег 10/8 150 м
[Frnb As op]
-1.0 -1.3 98 -5 -5 1019.4 1005.0
17 15.12 СВ 1 1600 м снег 10/8 150 м
[Frnb As op]
-1.0 -1.3 98 -3 -3 1019.5 1005.1
18 15.12 С 2 1500 м снег 10/8 150 м
[Frnb As op]
-1.2 -1.5 98 -5 -5 1019.7 1005.2 -0.5 2 4
19 15.12 С 2 1500 м снег 10/8 120 м
[Frnb As op]
-1.4 -1.7 98 -5 -5 1019.8 1005.3
20 15.12 С 2 1500 м снег 10/8 120 м
[Frnb As op]
-1.4 -1.7 98 -5 -5 1019.8 1005.3
21 15.12 С 2 1500 м слабый снег 10/8 120 м
[Frnb As op]
-1.4 -1.7 98 -5 -5 1019.7 1005.2

 

Местоположение метеостанции Kecskemet (Венгрия): широта 46.92 долгота 19.75 высота над уровнем моря 123 м.

В архиве по умолчанию представлена погода в Kecskemet за последнюю неделю. Архивные данные за месяц целиком и за предыдущие месяцы, начиная с января 2011 года, Вы можете получить, выбрав интересующий диапазон дат из раскрывающегося списка и нажав кнопку "Ввод!".


*Определитесь, кто Вы:
робот инопланетянин человек

Внимание! Время в таблицах - всемирное. Для получения местного времени необходимо прибавить поправку, которая в Kecskemet равна 1 ч.

Смотрите также архив погоды в соседних городах и на ближайших метеорологических станциях:

Погода в Szolnok (Венгрия) (43 км)
Погода в Budapest (Венгрия) (71 км)
Погода в Paks (Венгрия) (78 км)
Погода в Szeged (Венгрия) (79 км)
Погода в Agard (Венгрия) (90 км)
Погода в Palic (Сербия) (91 км)
Погода в Baja (Венгрия) (99 км)
Погода в Poroszlo (Венгрия) (105 км)
Погода в Kekesteto (Венгрия) (108 км)
Погода в Bekescsaba (Венгрия) (111 км)

Пояснения к столбцам:

Ветер - указаны скорость ветра в м/с - средняя за 10 мин, порывы в срок и между сроками (в фигурных скобках) и направление, откуда дует ветер: С - северный, СВ - северо-восточный, В - восточный, ЮВ - юго-восточный, Ю - южный, ЮЗ - юго-западный, З - западный, СЗ - северо-западный.
Видимость - горизонтальная дальность видимости в метрах или километрах. При видимости от 1 до 10 км при отсутствии осадков обычно наблюдается дымка, при ухудшении видимости до 1 км и менее - туман. В сухую погоду видимость может ухудшаться дымом, пылью или мглою.
Явления - указаны атмосферные явления, наблюдавшиеся в срок или в последний час перед сроком; фигурными скобками обозначены явления, наблюдавшиеся между сроками (за 1-3 часа до срока); квадратными скобками обозначены град или гололедные отложения с указанием их диаметра в мм.
Облачность - указаны через наклонную черту общая и нижняя облачность в баллах и высота нижней границы облаков в метрах; квадратными скобками обозначены формы облаков: Ci - перистые, Cs - перисто-слоистые, Cc - перисто-кучевые, Ac - высококучевые, As - высокослоистые, Sc - слоисто-кучевые, Ns - слоисто-дождевые, Cu - кучевые, Cb - кучево-дождевые. Подробнее классификацию облаков см. в Атласе облаков (PDF).
T - Температура воздуха - температура, измеренная на высоте 2 м над землей.
Td - Температура точки росы - температура, при понижении до которой содержащийся в воздухе водяной пар достигнет насыщения.
f - Относительная влажность воздуха - влажноcть воздуха, измеренная на высоте 2 м над землей.
Te - Эффективная температура - температура, которую ощущает одетый по сезону человек в тени. Характеристика душности погоды. При расчете учитывается влияние влажности воздуха и скорости ветра на теплоощущения человека.
Tes - Эффективная температура на солнце - температура, которую ощущает человек, с поправкой на солнечный нагрев. Характеристика знойности погоды. Зависит от высоты солнца над горизонтом, облачности и скорости ветра. Ночью, в пасмурную погоду, а также при ветре 12 м/с и более поправка равна нулю.
P - Атмосферное давление - приведенное к уровню моря атмосферное давление.
Po - Атмосферное давление - измеренное на уровне метеостанции атмосферное давление.
Tmin - Минимальная температура - минимум температуры воздуха на высоте 2 м над землей.
Tmax - Максимальная температура - максимум температуры воздуха на высоте 2 м над землей.
R - Количество осадков - Количество выпавших осадков за период времени, мм. При наведении курсора мыши на число - период времени, за который выпало указанное количество осадков.
R24 - Количество осадков - Количество выпавших осадков за 24 часа, мм.
S - Снежный покров - Высота снежного покрова, см. При наведении курсора мыши на число - состояние снежного покрова и степень покрытия местности в баллах.